GFSNW_prec_cloud_057.txt.gz
Cloud_Cover
94 100 47 0 0 0 5 100 24 62 19 31 89 66 5 92 54 5 3 0 0 5 2 0 4 7 5 0 0 0 0 0 1 0 0 0 0 0 2 5 0 0 0 0
80 100 6 0 0 0 16 80 100 100 100 53 100 100 70 5 5 5 2 3 4 4 0 0 0 0 1 0 0 0 0 0 0 4 0 2 0 0 0 0 1 0 11 0
100 63 3 0 0 0 14 84 100 100 100 100 100 98 14 5 24 4 0 0 0 0 3 4 2 0 0 0 2 0 0 0 0 0 0 10 0 0 0 0 4 0 5 0
100 37 3 0 0 0 9 41 100 100 98 100 100 100 100 83 93 87 100 99 79 4 0 2 5 14 5 5 0 4 3 2 0 0 0 0 0 0 0 0 0 0 0 0
46 100 0 0 0 0 5 14 100 100 100 100 100 100 100 100 100 62 20 3 5 5 2 4 5 5 28 5 3 5 5 0 1 0 0 0 0 0 0 0 0 0 0 0
100 14 0 0 0 0 7 10 72 100 98 98 100 100 80 33 24 3 1 2 5 6 6 6 2 1 1 2 5 4 4 5 3 1 3 4 1 0 0 0 0 0 0 0
91 0 5 0 0 0 98 100 100 81 66 62 90 100 86 20 10 5 56 6 8 5 9 3 3 5 25 71 75 4 92 5 100 15 95 51 0 2 0 0 0 0 0 0
5 5 1 0 0 0 32 100 100 70 76 76 100 42 6 5 17 22 64 42 22 19 61 5 5 74 98 97 99 95 99 100 70 84 78 1 0 0 2 0 0 0 0 0
8 74 0 0 0 0 0 0 0 64 100 100 86 28 9 18 1 37 12 54 99 13 100 42 84 100 12 100 100 100 64 68 87 100 96 4 0 24 86 95 0 0 3 0
100 13 0 0 4 0 0 0 0 0 4 0 1 0 1 2 2 5 12 7 55 6 90 98 94 100 90 100 100 100 100 95 46 96 100 52 20 11 91 39 6 0 0 0
92 0 0 0 5 0 0 0 0 0 3 5 4 3 5 5 11 28 5 31 10 8 100 100 100 100 100 100 96 100 100 100 100 100 100 87 31 8 64 73 0 7 0 0
26 0 0 0 0 0 0 10 0 0 0 6 0 3 5 0 0 5 52 5 57 22 100 98 99 100 100 100 100 89 100 100 100 100 100 41 30 55 17 28 93 62 63 3
4 4 0 0 0 0 0 0 2 1 0 5 5 82 69 7 8 5 13 34 10 5 87 99 84 100 87 100 100 100 100 100 100 100 100 82 47 95 67 19 98 26 0 28
96 4 0 0 0 0 0 0 26 74 6 30 3 62 98 18 20 13 88 61 92 99 93 98 88 90 100 99 70 100 95 98 100 100 99 100 100 100 100 100 100 100 100 34
100 7 0 0 0 0 0 0 0 39 48 45 0 60 100 100 97 100 28 6 21 94 100 94 82 56 50 80 66 100 100 100 100 100 100 100 100 100 100 100 100 100 100 100
100 75 2 2 0 0 24 77 78 86 100 100 18 66 71 99 35 84 68 5 5 5 66 52 61 98 5 83 100 94 100 100 100 100 100 100 100 100 100 100 100 100 100 100
100 100 4 5 0 3 7 78 14 6 19 95 46 44 20 5 81 14 86 67 29 8 84 26 94 70 5 7 70 98 91 100 100 100 100 100 100 100 100 100 100 100 100 100
100 100 19 4 0 0 0 1 0 2 53 98 60 89 84 47 69 6 65 63 14 82 100 76 44 8 8 17 10 34 87 70 100 100 100 100 100 100 100 100 100 100 100 100
100 100 5 3 7 3 8 0 19 96 65 100 94 22 91 100 100 77 23 90 69 68 100 100 81 99 87 99 23 39 5 5 99 100 100 100 100 100 100 100 100 100 100 100
99 16 37 11 73 26 1 95 100 100 98 100 100 100 100 100 100 100 100 81 100 100 84 93 97 99 89 74 28 64 5 5 43 96 100 100 100 100 100 100 100 100 100 100
5 24 72 10 4 0 2 100 100 100 100 100 100 53 100 100 100 100 100 100 100 100 100 58 100 69 52 98 45 14 19 34 100 89 68 100 100 100 100 100 100 100 100 100
8 6 5 8 5 35 13 47 86 100 71 22 6 5 6 39 34 4 5 64 100 100 100 100 100 88 32 47 25 73 5 55 100 89 12 99 100 100 100 100 100 100 100 100
5 8 5 23 44 62 84 99 100 52 5 95 89 88 5 24 4 5 8 96 99 100 100 99 100 100 98 97 70 24 5 43 12 5 5 47 100 100 100 100 100 100 100 100
5 16 96 4 15 84 99 100 100 100 98 100 92 86 81 26 8 39 7 13 63 97 94 68 98 100 100 16 35 96 18 98 5 5 64 23 54 94 100 100 100 100 100 100
8 24 58 6 33 93 100 100 52 97 73 91 53 96 5 7 84 7 11 5 7 5 69 58 5 5 5 12 0 66 99 22 69 76 2 5 40 64 71 100 100 100 100 100
5 4 2 86 85 64 90 86 100 97 25 35 100 35 5 48 4 6 7 7 5 13 43 35 11 100 5 4 2 53 16 4 35 93 37 12 66 55 56 91 100 100 100 100
4 9 93 93 95 62 58 100 96 24 43 17 100 80 5 3 6 7 24 6 2 58 94 62 6 7 4 5 0 4 2 5 7 33 62 47 43 60 100 31 82 100 100 100

GFSNW_prec_cloud_060.txt.gz
Cloud_Cover
100 100 100 0 0 0 0 69 100 98 98 98 100 82 5 3 2 3 3 1 5 4 4 4 3 0 3 5 0 0 0 4 5 1 0 0 0 0 0 0 0 0 0 0
100 100 35 0 4 32 30 90 30 94 100 100 76 52 26 44 5 5 4 0 0 0 2 1 3 1 0 0 5 1 0 0 0 0 1 0 0 0 0 0 0 0 2 0
100 84 0 4 0 13 13 3 100 57 100 100 100 100 96 62 5 4 0 2 3 0 0 0 0 0 1 5 0 4 23 0 0 2 1 4 0 0 0 0 0 0 3 73
100 0 2 3 0 0 1 4 52 100 88 100 100 100 100 100 100 41 40 23 8 2 0 0 0 0 0 0 0 0 2 30 4 0 0 3 92 13 0 0 0 0 0 51
100 75 5 0 0 0 2 5 15 100 100 90 100 100 100 100 100 100 100 92 8 9 5 5 1 0 0 0 0 0 1 0 5 5 0 0 1 70 60 0 0 0 0 1
92 50 2 0 0 0 0 98 95 37 100 100 100 100 100 80 45 52 18 5 0 0 0 0 0 0 0 0 0 0 0 0 5 3 0 0 0 0 95 7 1 0 0 0
100 4 0 0 0 0 0 7 100 100 72 92 100 100 100 100 95 100 26 10 0 0 0 0 1 3 0 2 3 3 0 3 51 40 5 16 0 0 0 2 61 4 0 0
79 2 0 0 0 0 0 0 0 45 100 97 100 86 54 45 6 5 7 5 4 5 0 5 5 5 5 5 9 21 26 5 88 92 5 1 0 0 0 0 0 2 0 0
5 0 5 0 0 0 0 0 0 0 0 0 0 0 0 0 1 4 5 5 4 1 2 5 14 69 27 95 100 94 64 67 5 89 46 47 64 0 0 0 0 12 4 0
2 4 4 0 0 0 0 0 0 0 0 0 0 0 0 1 0 3 3 5 1 5 3 70 94 100 91 21 100 49 91 30 80 98 93 70 60 9 23 43 21 0 34 5
57 3 5 0 0 0 0 0 0 0 0 0 0 0 0 0 0 4 0 10 5 5 20 50 100 100 100 91 84 100 53 96 21 100 91 92 62 88 72 21 27 87 60 46
100 40 4 0 0 0 0 0 0 0 0 0 0 3 5 4 4 0 4 7 5 5 6 32 61 100 100 100 97 100 100 92 94 83 5 21 5 36 46 94 100 100 100 100
100 16 5 0 0 0 0 0 0 0 0 4 51 90 61 29 6 4 1 0 3 5 5 4 13 96 59 93 95 100 100 72 88 80 97 72 21 28 90 100 100 100 100 100
100 83 1 0 0 0 0 0 0 18 4 21 4 1 5 65 18 22 81 5 4 5 5 29 26 7 6 26 34 98 37 76 100 99 50 100 100 100 100 100 99 100 100 100
100 100 0 0 0 0 1 4 0 20 63 30 100 78 5 6 7 17 86 79 91 16 27 56 58 76 10 18 63 100 27 76 71 100 92 100 100 100 100 100 100 100 100 100
100 100 23 4 5 0 0 44 71 89 100 100 100 100 100 100 100 82 100 100 100 100 100 71 100 100 56 30 88 5 2 5 68 99 100 100 100 100 100 100 100 100 100 100
100 100 96 5 4 0 0 5 44 100 100 100 100 100 98 100 100 100 100 97 100 100 100 100 98 69 95 58 11 5 5 5 4 5 36 100 100 100 100 96 100 100 100 100
100 100 98 5 5 0 3 5 6 87 100 81 94 96 90 100 100 100 100 100 100 100 100 100 100 92 38 13 5 3 3 1 4 4 6 77 100 100 100 100 100 96 100 100
100 94 2 5 6 16 49 79 100 100 68 55 32 9 22 5 95 100 100 100 100 100 100 100 98 100 91 5 5 5 5 1 1 5 5 5 56 100 96 100 100 92 100 100
95 29 1 8 98 59 80 44 18 19 6 28 69 5 5 5 8 33 46 100 100 100 100 100 100 100 91 14 46 30 5 6 73 8 65 98 5 20 100 100 100 100 100 100
97 13 8 27 4 0 8 51 98 55 84 69 55 91 14 5 14 13 47 100 100 100 100 100 100 100 100 80 96 94 18 29 75 46 42 4 5 7 100 100 100 100 100 100
28 39 7 5 3 37 89 41 79 47 28 63 58 99 29 49 67 99 72 69 100 100 98 100 100 100 100 100 85 5 32 77 40 66 46 5 5 6 90 100 100 100 100 100
93 11 5 24 39 37 100 99 100 99 91 43 22 100 46 93 6 34 18 78 65 57 53 86 100 100 100 85 20 16 5 5 27 66 5 5 3 5 76 100 100 100 100 100
5 5 96 18 8 100 100 100 100 92 61 45 6 20 5 90 78 2 5 5 28 18 57 98 49 52 31 32 5 71 5 4 5 5 5 5 16 5 100 100 100 100 100 100
7 2 58 3 7 42 92 30 48 44 27 5 70 6 20 100 100 6 4 4 7 5 22 43 66 78 50 50 5 19 10 0 0 5 5 4 5 52 18 86 100 100 100 100
1 0 0 28 78 95 100 98 100 56 5 5 44 6 10 42 100 17 5 4 5 3 13 5 82 6 80 60 20 99 100 4 2 6 19 6 5 11 5 5 89 100 100 100
2 0 6 100 100 99 88 13 88 74 64 47 5 21 27 31 100 74 5 5 5 5 5 18 72 41 66 100 100 86 86 43 23 27 5 4 28 5 56 5 5 17 100 100

GFSNW_prec_cloud_063.txt.gz
Cloud_Cover
21 100 100 88 1 4 2 0 80 95 99 84 90 12 0 8 81 100 32 57 19 5 5 0 0 0 0 5 2 0 2 81 100 55 3 0 0 0 0 0 0 0 0 0
100 98 98 2 5 42 3 0 6 94 100 100 22 100 60 9 6 0 2 3 5 5 5 0 0 0 0 0 10 5 0 0 5 5 5 0 0 0 0 0 0 0 0 0
100 100 22 0 0 2 0 2 5 100 99 100 99 95 100 5 2 5 5 0 0 0 3 5 2 0 0 0 0 23 5 2 5 3 3 4 0 0 0 3 0 0 0 0
100 100 2 0 0 0 0 2 5 58 33 99 100 62 44 91 100 87 3 0 0 0 0 0 1 2 5 4 0 0 1 7 5 5 0 0 4 5 1 0 0 0 0 0
100 100 0 2 0 0 0 0 99 68 100 100 80 91 100 82 100 100 100 32 5 5 1 0 0 0 0 0 5 5 5 0 5 64 10 0 0 2 4 5 1 0 0 0
14 6 5 0 0 0 0 0 11 87 16 100 100 100 96 43 38 12 52 31 91 54 4 0 0 0 0 0 0 0 0 0 2 4 59 11 3 0 14 65 5 0 0 0
100 21 4 0 0 0 0 0 0 0 13 99 79 66 88 100 100 97 76 76 5 4 0 0 0 0 1 0 0 0 0 0 0 4 0 4 4 5 1 19 72 5 0 0
99 81 1 0 0 0 0 0 0 0 0 0 0 5 0 0 0 5 5 0 0 0 0 5 5 5 5 5 5 5 0 0 2 5 30 1 0 0 0 0 2 60 8 7
100 100 34 0 0 0 0 0 0 0 0 0 0 0 0 0 0 2 3 0 0 0 0 1 6 28 56 5 3 4 5 5 5 60 14 44 3 4 0 0 51 0 5 8
100 100 0 1 0 0 0 0 0 0 0 0 0 0 0 0 0 0 3 5 0 0 1 6 19 56 86 39 52 6 45 20 45 97 93 30 6 4 4 15 30 25 65 67
100 97 1 5 0 0 0 0 0 0 0 0 0 4 0 0 0 0 0 1 0 5 6 6 96 98 98 97 71 5 45 84 73 100 76 41 8 11 5 6 5 49 100 100
100 82 4 5 0 0 0 0 0 0 5 3 5 5 5 22 5 0 2 2 0 0 15 40 81 100 92 90 66 53 48 8 13 5 5 5 4 3 39 100 100 97 100 100
96 6 94 7 4 2 0 0 4 6 5 5 4 15 5 5 4 4 5 5 5 10 74 55 6 21 46 94 72 81 89 49 100 100 100 31 8 5 5 8 47 100 100 100
100 93 90 5 4 4 0 2 42 100 100 100 74 54 23 23 11 18 4 6 53 92 5 97 100 89 5 29 5 27 5 72 97 76 11 87 100 100 14 25 60 97 100 100
99 100 43 8 5 1 0 10 1 21 100 100 95 100 78 14 32 17 45 100 100 98 96 19 99 100 95 14 31 66 25 21 36 23 10 27 5 70 100 100 58 91 100 50
100 99 100 63 5 4 0 0 0 6 94 100 73 5 47 72 45 100 73 100 100 100 100 100 95 100 100 100 100 5 0 0 0 5 5 5 5 5 100 100 100 100 87 100
100 94 100 65 5 5 0 0 0 5 10 91 25 5 5 6 9 16 68 100 100 100 100 100 100 100 100 100 100 5 1 2 4 0 4 0 5 5 8 67 100 100 100 99
100 100 100 37 5 8 0 10 87 99 98 93 55 93 13 7 13 61 100 99 89 100 100 100 100 100 100 100 100 100 54 15 5 4 2 0 5 5 32 5 100 98 83 86
100 100 52 17 18 3 0 16 63 100 98 34 45 26 34 8 49 14 21 55 100 100 100 100 100 100 100 85 100 100 100 98 7 5 5 5 2 0 16 40 7 100 100 80
100 100 79 5 3 0 9 79 36 16 64 66 91 39 29 4 8 45 100 100 100 100 100 100 100 100 100 100 100 90 100 100 11 5 10 4 0 0 4 5 71 65 89 100
100 97 28 5 4 1 19 51 77 91 96 40 39 9 5 5 22 96 30 78 84 100 12 71 93 100 100 100 98 100 63 33 59 5 88 88 5 4 2 5 87 67 99 100
100 54 23 5 3 45 80 53 49 50 42 12 16 6 21 5 35 100 84 95 83 77 12 69 75 20 75 69 91 100 100 100 100 100 25 18 5 1 4 68 5 78 96 100
24 33 10 35 5 88 29 6 38 97 66 57 77 83 5 41 43 83 74 98 66 12 58 89 1 5 5 13 5 11 5 42 99 28 13 5 11 2 5 84 59 45 92 100
57 34 97 66 14 12 29 67 48 100 39 77 99 100 98 10 72 57 99 6 39 44 48 5 3 5 5 5 5 5 43 50 60 5 8 23 21 4 5 5 5 96 100 82
52 100 66 2 1 9 8 56 67 69 46 99 33 82 100 100 92 98 100 26 35 5 5 3 2 5 5 5 63 63 7 20 75 3 12 87 30 8 5 5 5 44 100 73
93 68 5 0 10 98 94 100 100 100 100 100 100 93 100 100 97 100 100 97 100 68 0 3 5 6 5 12 88 12 100 100 100 46 79 100 99 34 5 5 5 2 92 74
53 5 0 1 83 32 96 89 100 100 100 100 100 100 100 100 100 100 100 100 100 48 32 29 5 5 0 5 94 67 99 100 100 100 100 100 30 74 63 4 4 0 55 95

GFSNW_prec_cloud_069.txt.gz
Cloud_Cover
64 4 2 5 2 0 0 0 0 5 94 97 100 82 6 43 59 43 78 100 100 100 100 100 100 100 100 100 100 100 100 100 88 5 1 0 0 0 0 0 0 0 0 0
4 21 5 10 0 0 0 0 0 2 100 66 48 100 100 40 5 62 97 27 40 100 100 100 100 100 100 100 98 100 100 100 100 71 14 4 0 0 0 0 0 0 0 0
5 5 12 8 0 0 0 0 0 0 99 99 15 19 100 100 68 63 72 100 100 100 98 100 100 86 80 90 43 86 87 100 100 100 58 5 5 0 0 0 0 0 0 0
100 95 32 95 1 0 0 0 0 0 2 48 100 17 5 76 100 88 88 97 100 100 100 91 78 10 1 0 0 0 1 22 75 66 22 5 0 2 0 0 0 0 0 0
100 36 97 100 4 0 0 0 0 0 0 0 6 82 100 96 52 77 90 70 94 66 100 100 100 6 4 0 0 0 0 0 4 71 74 16 5 21 0 5 3 0 0 0
100 100 83 100 30 1 0 0 0 0 0 0 0 0 4 5 5 5 13 14 45 92 99 93 100 100 62 5 4 4 0 0 0 5 5 5 0 0 2 4 5 5 3 0
100 100 100 99 25 4 0 0 0 0 0 0 0 0 0 0 0 1 5 5 14 5 18 9 87 69 60 14 7 5 5 2 0 0 0 2 3 1 0 0 0 0 0 0
100 100 100 97 12 34 3 0 0 0 0 5 0 0 0 0 0 0 0 3 1 2 1 3 5 6 24 5 5 7 5 5 3 0 0 0 0 0 0 0 12 15 0 0
100 100 100 99 98 43 5 0 0 0 5 14 73 0 0 0 0 0 0 0 0 0 5 5 5 5 5 5 4 5 5 5 4 1 0 0 0 0 0 0 0 31 0 0
100 100 100 100 100 82 5 2 0 0 7 92 99 4 0 0 0 0 0 0 0 0 0 4 6 23 6 8 2 4 4 5 3 5 5 4 0 0 0 3 21 0 1 4
100 100 100 100 100 100 6 4 0 0 0 67 45 4 0 5 5 0 0 0 0 0 1 6 20 10 27 12 8 5 2 5 13 70 39 4 1 4 4 1 0 0 5 5
100 100 100 100 100 97 5 0 0 0 0 2 1 5 5 5 5 0 0 3 4 4 0 26 21 44 71 15 5 5 10 3 4 4 0 0 0 0 0 0 0 1 2 5
100 100 100 100 100 69 33 0 0 0 0 0 0 29 34 5 5 5 3 1 0 0 5 0 1 10 5 5 5 5 4 0 3 3 0 0 5 11 0 0 0 0 4 5
100 100 100 100 100 56 48 5 0 0 0 0 3 4 79 5 5 5 5 5 5 5 9 10 5 29 4 4 4 4 2 16 8 5 28 14 5 55 90 8 4 2 0 4
100 100 100 100 100 94 17 5 0 0 0 0 1 5 5 10 14 18 10 67 100 100 100 78 81 100 84 50 7 20 3 4 3 5 5 5 2 0 2 5 5 5 2 0
100 100 100 100 100 100 5 5 1 0 0 5 8 48 14 70 100 100 50 83 51 100 100 100 100 97 95 100 100 100 7 5 0 5 0 0 0 0 0 0 0 0 0 0
100 100 100 100 100 90 5 5 0 0 4 4 34 100 84 94 100 100 100 62 83 100 100 99 100 100 100 100 100 100 100 100 85 5 5 7 12 2 0 0 0 0 0 0
100 100 100 100 100 45 6 7 0 17 12 8 35 48 65 100 95 100 100 94 94 98 57 97 98 100 100 100 84 100 100 92 19 55 19 6 17 5 6 0 0 0 0 0
100 100 100 100 100 16 38 12 0 94 27 5 100 100 100 100 100 100 100 100 87 78 97 100 98 100 100 91 100 91 100 100 100 77 16 7 44 100 13 4 0 0 0 0
100 100 100 100 100 5 59 39 77 14 5 17 100 100 88 100 100 100 100 100 100 49 78 100 83 100 5 9 95 100 98 100 100 100 68 100 100 14 11 7 2 0 0 0
100 100 100 100 100 48 81 68 90 83 98 56 91 86 63 100 100 100 100 100 100 77 53 98 100 69 0 4 38 64 92 100 96 92 78 86 100 100 94 7 0 0 1 3
100 92 86 100 98 81 86 90 79 100 61 37 82 85 62 91 100 100 100 100 100 91 27 96 100 18 4 2 5 5 7 12 14 4 3 5 5 5 5 5 4 5 5 5
100 68 97 100 81 92 87 54 95 96 90 68 100 75 53 100 100 100 100 100 100 94 98 97 100 99 100 100 65 5 5 5 5 47 21 5 5 5 3 5 5 1 63 7
100 93 98 100 100 67 78 82 7 91 100 100 100 99 100 100 100 100 100 100 97 99 84 58 55 100 100 100 94 7 5 5 55 100 98 55 5 16 61 6 67 76 100 100
100 100 100 100 89 54 18 52 13 57 100 100 100 100 100 88 94 100 100 100 100 30 2 5 3 28 48 4 5 3 0 1 4 42 74 100 99 56 73 100 100 99 100 16
100 100 100 100 32 5 4 20 85 57 79 61 71 72 97 100 100 100 100 100 42 5 50 5 5 5 5 5 5 5 5 10 10 3 8 69 100 83 100 100 100 93 46 5
100 100 64 66 5 5 5 5 6 86 76 100 100 98 100 100 100 100 100 92 5 64 90 5 5 3 1 9 81 74 65 7 30 58 85 71 90 86 97 99 100 100 100 92

GFSNW_prec_cloud_072.txt.gz
Cloud_Cover
85 60 5 7 5 3 62 0 1 4 17 99 100 49 5 2 5 100 100 100 100 100 100 100 100 100 100 76 100 99 98 86 76 3 0 0 0 0 0 0 4 0 6 9
100 100 65 10 5 5 0 0 0 2 99 36 99 100 48 5 18 20 60 75 100 99 100 100 100 100 99 100 71 100 98 77 100 100 2 0 0 0 0 0 0 7 0 1
100 100 100 100 39 5 9 0 0 0 2 10 30 100 100 65 5 52 76 33 56 77 99 100 100 100 100 97 100 5 65 100 100 76 100 3 0 0 0 0 0 34 18 0
100 100 100 100 37 5 4 0 0 0 0 0 54 7 97 100 100 96 26 100 100 94 96 40 50 65 100 100 100 99 5 89 100 100 98 100 16 0 0 0 0 2 46 0
100 100 100 100 89 39 49 0 0 0 0 0 0 0 8 52 74 99 100 50 100 100 100 100 100 73 5 5 18 5 5 3 5 99 100 100 100 54 0 0 0 0 0 0
100 100 100 100 100 32 24 3 0 0 0 0 0 0 0 0 5 15 5 67 82 100 100 100 100 100 52 3 0 0 0 2 5 6 100 100 100 100 100 100 100 4 1 0
100 100 100 100 100 97 54 2 0 0 4 2 0 0 0 0 4 3 4 20 24 42 95 100 100 100 100 84 6 0 0 0 0 0 3 94 99 100 100 83 73 31 5 0
100 100 100 100 100 100 68 4 0 0 2 5 0 0 0 0 3 5 5 4 3 7 56 13 70 100 100 100 100 78 5 0 0 0 0 0 2 46 57 26 13 5 4 4
100 100 100 100 100 100 9 5 1 0 0 4 1 0 0 0 0 4 5 0 0 1 5 5 41 40 64 50 96 100 100 84 18 5 4 0 0 0 0 5 5 1 0 0
100 100 100 100 100 100 78 5 1 0 0 0 0 0 1 0 0 0 1 5 4 0 4 23 41 28 5 10 5 6 43 53 29 27 5 5 2 0 0 0 5 5 3 0
100 100 100 100 100 100 90 5 2 0 0 0 0 0 0 0 1 0 0 2 0 0 2 4 5 5 7 6 12 5 5 5 10 8 63 21 4 0 2 1 0 0 0 0
100 100 100 100 100 100 100 20 0 0 0 0 0 5 5 4 0 0 0 0 0 0 0 1 5 5 5 5 5 2 5 9 66 8 19 2 4 5 0 0 0 0 0 0
100 100 100 100 100 100 100 38 4 1 0 0 5 5 5 5 5 46 6 6 9 4 0 0 1 4 2 5 5 5 1 5 5 0 0 0 1 0 0 0 0 0 0 0
100 100 100 100 100 100 100 61 5 3 0 2 0 5 19 10 5 94 99 6 5 8 5 37 51 36 5 14 5 5 4 4 1 4 1 0 0 0 0 0 0 0 1 3
100 100 100 100 100 100 100 67 5 3 1 0 3 5 5 25 16 60 65 100 81 98 68 87 96 86 82 73 100 95 33 7 4 5 4 0 0 0 0 1 0 0 4 2
100 100 100 100 100 100 100 18 5 5 5 5 5 5 42 98 84 94 41 100 100 73 61 92 34 99 86 91 92 100 32 6 5 5 2 0 0 5 3 2 2 4 3 5
100 100 100 100 100 100 100 54 17 4 5 6 5 12 39 57 100 68 84 72 90 100 66 100 42 97 100 100 99 8 95 82 14 5 5 2 0 0 0 0 3 1 0 2
100 100 100 100 100 100 100 30 98 22 40 11 16 72 62 38 87 42 16 83 97 100 100 62 87 100 100 100 9 36 60 100 100 39 5 24 30 4 5 2 0 5 3 3
100 100 100 100 100 100 100 98 98 23 53 37 32 100 70 99 56 61 98 99 100 100 100 76 47 100 100 25 66 94 98 100 100 100 96 86 100 100 37 5 4 4 12 5
100 100 100 100 100 100 100 80 97 100 84 14 39 24 100 100 89 100 100 100 98 100 100 58 80 100 0 9 19 39 99 75 89 100 100 100 97 81 90 96 55 70 6 3
100 100 100 100 100 100 100 100 100 100 45 36 77 92 100 73 63 100 100 100 100 100 100 98 100 71 6 90 100 100 81 23 87 100 100 100 80 44 81 94 96 89 8 4
100 100 100 100 100 100 100 100 100 99 19 79 85 25 56 84 100 100 100 100 100 100 100 96 97 9 2 2 54 100 100 100 62 5 5 59 100 100 77 70 95 99 44 5
100 100 100 100 100 100 100 92 100 50 18 81 69 96 100 98 56 100 100 100 100 100 100 88 32 19 0 2 1 8 9 39 6 11 38 33 57 94 62 28 32 42 90 41
100 100 100 100 100 100 100 89 51 7 12 32 38 96 99 99 96 100 100 100 100 100 99 58 43 19 3 5 2 0 0 0 2 10 8 5 5 17 33 16 65 42 90 83
100 100 100 100 100 97 53 11 8 5 6 16 51 86 84 100 100 100 100 100 100 100 12 98 62 5 2 1 3 2 0 0 0 8 14 5 22 14 19 65 100 93 100 100
100 100 100 100 97 57 5 2 3 6 72 89 100 100 100 100 100 100 100 100 100 94 97 40 6 2 0 2 3 0 3 6 26 84 71 49 73 85 22 67 100 100 100 95
100 100 100 100 77 9 5 4 5 66 88 90 100 100 100 93 100 100 100 100 99 96 37 18 8 5 21 5 4 32 36 16 26 6 81 28 28 13 40 100 78 100 100 95

GFSNW_prec_cloud_075.txt.gz
Cloud_Cover
100 100 84 100 48 36 70 0 97 4 0 41 100 88 2 4 99 100 100 93 98 95 77 93 71 100 10 7 83 100 92 90 82 1 4 0 0 4 4 5 3 42 100 100
100 100 100 100 100 99 2 0 0 0 0 100 6 97 44 2 22 4 75 88 100 100 100 100 96 94 5 73 5 22 70 100 100 18 1 0 0 0 1 5 73 71 51 53
100 100 100 100 100 100 13 5 4 0 0 0 1 10 100 49 5 20 4 34 100 75 100 100 100 100 68 98 91 5 87 88 96 100 98 37 4 0 0 4 6 29 52 20
100 100 100 100 100 100 63 5 0 0 0 0 0 4 1 100 19 89 11 62 20 66 100 100 93 100 100 98 100 83 44 53 88 54 5 21 88 4 0 0 0 100 100 20
100 100 100 100 100 100 97 16 2 0 0 0 0 0 0 4 53 33 71 54 99 78 63 93 100 62 84 100 99 100 19 100 100 79 10 89 73 1 0 0 2 4 100 100
100 100 100 100 100 100 100 25 2 0 0 0 0 0 0 0 0 5 5 33 90 100 100 100 62 5 5 7 99 100 90 67 94 100 100 100 86 100 78 0 0 58 96 33
100 100 100 100 100 100 100 100 0 0 0 0 0 0 0 0 0 3 5 5 5 26 99 100 100 100 97 57 6 100 100 100 61 100 100 100 100 100 100 100 51 3 1 2
100 100 100 100 100 100 100 99 1 0 0 0 0 0 0 0 0 0 0 0 4 5 5 73 100 100 100 100 100 17 5 16 74 11 100 100 100 100 100 100 62 100 15 0
100 100 100 100 100 100 100 80 26 1 1 1 0 0 0 1 0 0 0 0 0 0 30 23 90 100 100 100 100 100 84 7 5 5 24 99 69 100 100 100 100 100 84 59
100 100 100 100 100 100 100 31 90 1 5 0 0 5 5 1 0 2 0 0 1 1 5 43 87 91 8 83 100 100 100 99 34 5 5 11 4 0 70 100 100 100 100 100
100 100 100 100 100 100 100 5 100 2 3 2 0 0 2 5 38 9 4 1 2 1 3 5 10 5 5 5 6 42 100 100 100 69 59 66 39 0 0 3 68 96 100 100
100 100 100 100 100 100 100 52 100 2 0 30 0 0 5 5 5 45 26 5 5 5 4 1 5 5 5 5 5 2 5 63 95 94 100 25 10 5 4 4 4 0 14 94
100 100 100 100 100 100 100 100 100 2 1 5 0 2 5 5 6 72 63 56 91 3 0 5 5 4 4 11 9 5 3 4 2 4 5 5 5 5 5 0 1 2 0 0
100 100 100 100 100 100 100 100 100 6 4 8 24 0 5 14 57 23 30 31 86 100 33 82 96 57 51 58 92 22 4 6 5 4 3 4 3 5 3 3 1 0 0 1
100 100 100 100 100 100 100 100 100 5 17 10 53 4 5 32 95 62 74 32 32 25 84 100 100 100 84 71 51 70 82 59 39 5 24 9 3 5 3 5 0 0 2 5
100 100 100 100 100 100 100 100 100 5 5 5 69 9 5 5 90 96 99 96 100 57 100 88 100 80 37 56 99 39 66 78 100 65 71 73 57 5 2 4 5 5 5 5
100 100 100 100 100 100 100 100 100 69 5 5 5 15 5 5 5 9 62 100 99 99 100 99 100 100 35 100 60 4 43 98 27 100 100 72 5 5 1 3 5 3 5 5
100 100 100 100 100 100 100 100 100 70 20 5 10 53 4 15 95 100 82 100 100 100 100 100 100 100 73 79 1 37 41 100 26 100 100 98 57 5 5 5 5 5 5 5
100 100 100 100 100 100 100 100 100 100 73 58 33 38 68 70 37 81 74 99 100 100 100 100 100 100 91 7 28 30 48 82 86 100 94 98 97 65 5 7 8 11 13 65
100 100 100 100 100 100 100 100 100 100 100 84 46 62 57 30 100 85 99 100 88 99 100 100 100 100 1 0 6 5 18 89 99 67 100 100 100 100 100 100 100 100 99 100
100 100 100 100 100 100 100 100 100 100 100 100 97 37 75 91 90 80 38 97 92 38 73 100 100 73 17 71 8 11 19 29 72 100 99 98 100 100 100 100 100 100 100 100
100 100 100 100 100 100 100 100 100 100 100 72 43 54 8 85 68 99 100 100 100 97 100 100 100 11 10 60 97 84 57 100 99 100 92 80 90 93 63 99 100 100 91 74
100 100 100 100 100 100 100 100 100 100 41 74 56 66 81 95 100 100 100 100 100 100 100 100 100 12 40 100 97 100 100 83 62 99 100 100 100 100 93 96 60 100 74 70
100 99 100 100 100 100 100 100 99 65 99 84 35 100 100 84 91 100 100 100 100 100 100 100 100 59 99 42 4 90 99 100 100 99 100 67 8 55 90 100 74 75 90 91
96 80 100 100 100 100 100 100 96 75 100 78 69 86 100 92 100 100 100 100 100 100 100 100 93 100 21 0 6 25 62 99 100 100 100 100 100 100 100 63 18 82 30 12
84 94 100 100 100 100 100 93 91 74 84 64 86 77 98 98 99 100 100 100 100 100 100 98 46 3 0 0 1 49 87 99 82 74 79 79 82 93 97 92 28 10 6 10
62 100 100 100 100 100 36 5 8 46 61 33 98 100 94 100 100 100 100 100 100 100 100 8 5 8 0 3 88 100 9 4 21 92 100 82 100 73 59 39 54 30 66 52